Time,TemperatureF,DewpointF,PressureIn,WindDirection,WindDirectionDegrees,WindSpeedMPH,WindSpeedGustMPH,Humidity,HourlyPrecipIn,Conditions,Clouds,dailyrainin,SolarRadiationWatts/m^2,SoftwareType,DateUTC
2013-05-10 00:00:00,68.9,62.5,29.92,SE,146,0.0,1.0,80,0.00,OVC,,0.00,0.0,WeatherDisplay:10.37,2013-05-10 05:00:00,
2013-05-10 00:10:00,69.0,62.2,29.91,SSE,158,0.0,1.0,79,0.00,OVC,,0.00,0.0,WeatherDisplay:10.37,2013-05-10 05:10:00,
2013-05-10 00:20:00,69.2,62.4,29.92,South,188,0.0,1.0,79,0.00,OVC,,0.00,0.0,WeatherDisplay:10.37,2013-05-10 05:20:00,
2013-05-10 00:30:00,69.3,62.5,29.92,SSW,198,0.0,1.0,79,0.00,OVC,,0.00,0.0,WeatherDisplay:10.37,2013-05-10 05:30:00,
2013-05-10 00:40:00,69.4,62.6,29.91,SSW,198,0.0,0.0,79,0.00,OVC,,0.00,0.0,WeatherDisplay:10.37,2013-05-10 05:40:00,
2013-05-10 00:50:00,69.5,62.7,29.91,SSW,198,0.0,0.0,79,0.00,OVC,,0.00,0.0,WeatherDisplay:10.37,2013-05-10 05:50:00,
2013-05-10 01:00:00,69.3,62.9,29.90,SSW,198,0.0,0.0,80,0.00,OVC,,0.00,0.0,WeatherDisplay:10.37,2013-05-10 06:00:00,
2013-05-10 01:10:00,69.2,62.8,29.90,SSW,197,0.0,1.0,80,0.00,OVC,,0.00,0.0,WeatherDisplay:10.37,2013-05-10 06:10:00,
2013-05-10 01:20:00,69.4,63.0,29.89,SSE,160,1.0,2.0,80,0.00,OVC,,0.00,0.0,WeatherDisplay:10.37,2013-05-10 06:20:00,
2013-05-10 01:30:00,69.3,62.8,29.88,SSE,147,0.0,2.0,80,0.00,OVC,,0.00,0.0,WeatherDisplay:10.37,2013-05-10 06:30:00,
2013-05-10 01:40:00,69.0,62.6,29.88,SSE,168,0.0,1.0,80,0.00,OVC,,0.00,0.0,WeatherDisplay:10.37,2013-05-10 06:40:00,
2013-05-10 01:50:00,68.6,62.5,29.88,SSW,209,1.0,2.0,81,0.00,BKN,,0.00,0.0,WeatherDisplay:10.37,2013-05-10 06:50:00,
2013-05-10 02:00:00,68.3,62.6,29.88,SW,214,0.0,1.0,82,0.00,BKN,,0.00,0.0,WeatherDisplay:10.37,2013-05-10 07:00:00,
2013-05-10 02:10:00,68.2,62.8,29.87,SSW,209,0.0,2.0,83,0.00,OVC,,0.00,0.0,WeatherDisplay:10.37,2013-05-10 07:10:00,
2013-05-10 02:20:00,67.7,63.0,29.87,SSW,200,1.0,3.0,85,0.00,OVC,,0.00,0.0,WeatherDisplay:10.37,2013-05-10 07:20:00,
2013-05-10 02:30:00,67.7,63.1,29.88,SW,223,5.0,8.0,85,0.01,RA,,0.01,0.0,WeatherDisplay:10.37,2013-05-10 07:30:00,
2013-05-10 02:40:00,67.6,63.2,29.88,SW,217,5.0,12.0,86,0.03,RA,,0.04,0.0,WeatherDisplay:10.37,2013-05-10 07:40:00,
2013-05-10 02:50:00,66.8,62.8,29.89,SW,224,5.0,12.0,87,0.02,RA,,0.06,0.0,WeatherDisplay:10.37,2013-05-10 07:50:00,
2013-05-10 03:00:00,66.1,62.8,29.89,SW,219,6.0,10.0,89,0.03,RA,,0.09,0.0,WeatherDisplay:10.37,2013-05-10 08:00:00,
2013-05-10 03:10:00,65.2,62.2,29.89,SW,223,3.0,7.0,90,0.03,RA,,0.12,0.0,WeatherDisplay:10.37,2013-05-10 08:10:00,
2013-05-10 03:20:00,64.8,61.8,29.88,WSW,245,2.0,8.0,90,0.00,BKN,,0.12,0.0,WeatherDisplay:10.37,2013-05-10 08:20:00,
2013-05-10 03:30:00,64.4,61.7,29.89,WSW,238,5.0,9.0,91,0.02,RA,,0.14,0.0,WeatherDisplay:10.37,2013-05-10 08:30:00,
2013-05-10 03:40:00,64.1,61.7,29.89,SW,230,5.0,9.0,92,0.03,RA,,0.17,0.0,WeatherDisplay:10.37,2013-05-10 08:40:00,
2013-05-10 03:50:00,64.0,61.9,29.89,SW,225,5.0,13.0,93,0.02,RA,,0.19,0.0,WeatherDisplay:10.37,2013-05-10 08:50:00,
2013-05-10 04:00:00,64.0,61.9,29.88,SW,217,7.0,12.0,93,0.03,RA,,0.22,0.0,WeatherDisplay:10.37,2013-05-10 09:00:00,
2013-05-10 04:10:00,64.0,61.9,29.88,SW,219,5.0,15.0,93,0.05,RA,,0.27,0.0,WeatherDisplay:10.37,2013-05-10 09:10:00,
2013-05-10 04:20:00,63.9,61.8,29.88,SSW,213,2.0,7.0,93,0.03,RA,,0.30,0.0,WeatherDisplay:10.37,2013-05-10 09:20:00,
2013-05-10 04:30:00,63.8,61.4,29.87,WSW,249,2.0,7.0,92,0.01,RA,,0.31,0.0,WeatherDisplay:10.37,2013-05-10 09:30:00,
2013-05-10 04:40:00,63.6,61.2,29.87,SW,225,1.0,6.0,92,0.01,RA,,0.32,0.0,WeatherDisplay:10.37,2013-05-10 09:40:00,
2013-05-10 04:50:00,63.5,61.4,29.86,SW,232,0.0,4.0,93,0.01,RA,,0.33,0.0,WeatherDisplay:10.37,2013-05-10 09:50:00,
2013-05-10 05:00:00,63.3,61.2,29.85,SSW,209,0.0,2.0,93,0.00,OVC,,0.33,0.0,WeatherDisplay:10.37,2013-05-10 10:00:00,
2013-05-10 05:10:00,63.3,61.2,29.85,SW,215,1.0,2.0,93,0.00,OVC,,0.33,0.0,WeatherDisplay:10.37,2013-05-10 10:10:00,
2013-05-10 05:20:00,63.2,61.1,29.85,SSW,213,0.0,2.0,93,0.00,OVC,,0.33,0.0,WeatherDisplay:10.37,2013-05-10 10:20:00,
2013-05-10 05:30:00,63.0,61.2,29.85,South,173,0.0,2.0,94,0.01,RA,,0.34,0.0,WeatherDisplay:10.37,2013-05-10 10:30:00,
2013-05-10 05:40:00,63.0,61.2,29.85,ESE,121,0.0,1.0,94,0.01,RA,,0.35,0.0,WeatherDisplay:10.37,2013-05-10 10:40:00,
2013-05-10 05:50:00,62.8,61.0,29.86,SSE,147,0.0,1.0,94,0.00,OVC,,0.35,0.0,WeatherDisplay:10.37,2013-05-10 10:50:00,
2013-05-10 06:00:00,62.7,61.2,29.86,SSE,150,0.0,2.0,95,0.01,RA,,0.36,0.0,WeatherDisplay:10.37,2013-05-10 11:00:00,
2013-05-10 06:10:00,62.7,61.2,29.87,South,173,1.0,3.0,95,0.01,RA,,0.37,0.0,WeatherDisplay:10.37,2013-05-10 11:10:00,
2013-05-10 06:20:00,62.7,61.2,29.87,South,189,1.0,2.0,95,0.02,RA,,0.39,0.0,WeatherDisplay:10.37,2013-05-10 11:20:00,
2013-05-10 06:30:00,62.8,61.3,29.87,SSE,160,0.0,1.0,95,0.02,RA,,0.41,0.0,WeatherDisplay:10.37,2013-05-10 11:30:00,
2013-05-10 06:40:00,63.0,61.8,29.86,SSE,154,0.0,2.0,96,0.02,RA,,0.43,0.0,WeatherDisplay:10.37,2013-05-10 11:40:00,
2013-05-10 06:50:00,63.2,62.0,29.85,ESE,116,1.0,2.0,96,0.00,OVC,,0.43,0.0,WeatherDisplay:10.37,2013-05-10 11:50:00,
2013-05-10 07:00:00,63.3,62.1,29.86,SE,133,1.0,2.0,96,0.01,RA,,0.44,0.0,WeatherDisplay:10.37,2013-05-10 12:00:00,
2013-05-10 07:10:00,63.3,62.1,29.86,SE,139,0.0,2.0,96,0.00,OVC,,0.44,0.0,WeatherDisplay:10.37,2013-05-10 12:10:00,
2013-05-10 07:20:00,63.4,62.2,29.86,SE,143,1.0,2.0,96,0.01,RA,,0.45,0.0,WeatherDisplay:10.37,2013-05-10 12:20:00,
2013-05-10 07:30:00,63.5,62.3,29.86,South,186,0.0,2.0,96,0.00,OVC,,0.45,0.0,WeatherDisplay:10.37,2013-05-10 12:30:00,
2013-05-10 07:40:00,63.6,62.5,29.86,SSE,150,1.0,3.0,96,0.00,OVC,,0.45,0.0,WeatherDisplay:10.37,2013-05-10 12:40:00,
2013-05-10 07:50:00,63.8,62.6,29.86,SSW,198,1.0,3.0,96,0.01,RA,,0.46,0.0,WeatherDisplay:10.37,2013-05-10 12:50:00,
2013-05-10 08:00:00,63.8,62.6,29.86,SSW,198,1.0,3.0,96,0.00,OVC,,0.46,0.0,WeatherDisplay:10.37,2013-05-10 13:00:00,
2013-05-10 08:10:00,63.8,62.6,29.87,SSW,196,1.0,4.0,96,0.00,OVC,,0.46,0.0,WeatherDisplay:10.37,2013-05-10 13:10:00,
2013-05-10 08:20:00,63.7,62.5,29.87,South,189,1.0,3.0,96,0.00,OVC,,0.46,0.0,WeatherDisplay:10.37,2013-05-10 13:20:00,
2013-05-10 08:30:00,63.9,62.7,29.87,SSW,193,1.0,4.0,96,0.00,OVC,,0.46,0.0,WeatherDisplay:10.37,2013-05-10 13:30:00,
2013-05-10 08:40:00,64.0,62.9,29.87,SSW,196,1.0,3.0,96,0.01,RA,,0.47,0.0,WeatherDisplay:10.37,2013-05-10 13:40:00,
2013-05-10 08:50:00,64.2,63.0,29.87,South,170,1.0,5.0,96,0.00,OVC,,0.47,0.0,WeatherDisplay:10.37,2013-05-10 13:50:00,
2013-05-10 09:00:00,64.4,63.3,29.87,South,177,1.0,4.0,96,0.00,OVC,,0.47,0.0,WeatherDisplay:10.37,2013-05-10 14:00:00,
2013-05-10 09:10:00,64.6,63.1,29.88,South,181,2.0,5.0,95,0.00,OVC,,0.47,0.0,WeatherDisplay:10.37,2013-05-10 14:10:00,
2013-05-10 09:20:00,64.7,63.2,29.87,SSW,200,1.0,4.0,95,0.00,OVC,,0.47,0.0,WeatherDisplay:10.37,2013-05-10 14:20:00,
2013-05-10 09:30:00,64.7,62.9,29.88,SSW,209,2.0,5.0,94,0.00,OVC,,0.47,0.0,WeatherDisplay:10.37,2013-05-10 14:30:00,
2013-05-10 09:40:00,64.9,63.4,29.88,SSW,212,1.0,3.0,95,0.00,OVC,,0.47,0.0,WeatherDisplay:10.37,2013-05-10 14:40:00,
2013-05-10 09:50:00,65.0,63.2,29.88,SW,226,3.0,7.0,94,0.00,OVC,,0.47,0.0,WeatherDisplay:10.37,2013-05-10 14:50:00,
2013-05-10 10:00:00,65.5,63.4,29.88,SW,223,2.0,5.0,93,0.00,OVC,,0.47,0.0,WeatherDisplay:10.37,2013-05-10 15:00:00,
2013-05-10 10:10:00,66.4,64.0,29.88,SSW,203,1.0,4.0,92,0.00,OVC,,0.47,0.0,WeatherDisplay:10.37,2013-05-10 15:10:00,
2013-05-10 10:20:00,66.9,63.9,29.88,SW,235,3.0,5.0,90,0.00,OVC,,0.47,0.0,WeatherDisplay:10.37,2013-05-10 15:20:00,
2013-05-10 10:30:00,67.1,64.1,29.88,SW,236,1.0,7.0,90,0.00,OVC,,0.47,0.0,WeatherDisplay:10.37,2013-05-10 15:30:00,
2013-05-10 10:40:00,67.1,63.7,29.88,WSW,238,2.0,8.0,89,0.00,OVC,,0.47,0.0,WeatherDisplay:10.37,2013-05-10 15:40:00,
2013-05-10 10:50:00,67.1,63.7,29.88,SW,220,3.0,7.0,89,0.00,OVC,,0.47,0.0,WeatherDisplay:10.37,2013-05-10 15:50:00,
2013-05-10 11:00:00,67.4,63.4,29.89,SW,223,5.0,7.0,87,0.00,OVC,,0.47,0.0,WeatherDisplay:10.37,2013-05-10 16:00:00,
2013-05-10 11:10:00,67.9,63.9,29.89,WSW,240,3.0,6.0,87,0.00,OVC,,0.47,0.0,WeatherDisplay:10.37,2013-05-10 16:10:00,
2013-05-10 11:20:00,67.6,63.9,29.88,WSW,243,1.0,7.0,88,0.01,RA,,0.48,0.0,WeatherDisplay:10.37,2013-05-10 16:20:00,
2013-05-10 11:30:00,68.5,65.2,29.88,West,280,3.0,6.0,89,0.00,OVC,,0.48,0.0,WeatherDisplay:10.37,2013-05-10 16:30:00,
2013-05-10 11:40:00,70.1,65.3,29.88,WSW,237,2.0,7.0,85,0.00,OVC,,0.48,0.0,WeatherDisplay:10.37,2013-05-10 16:40:00,
2013-05-10 11:50:00,70.5,64.7,29.88,West,267,5.0,6.0,82,0.00,OVC,,0.48,0.0,WeatherDisplay:10.37,2013-05-10 16:50:00,
2013-05-10 12:00:00,70.7,65.0,29.88,WSW,252,2.0,6.0,82,0.00,OVC,,0.48,0.0,WeatherDisplay:10.37,2013-05-10 17:00:00,
2013-05-10 12:10:00,70.7,64.2,29.88,WSW,243,5.0,9.0,80,0.00,OVC,,0.48,0.0,WeatherDisplay:10.37,2013-05-10 17:10:00,
2013-05-10 12:20:00,71.3,64.4,29.88,SW,224,5.0,12.0,79,0.00,OVC,,0.48,0.0,WeatherDisplay:10.37,2013-05-10 17:20:00,
2013-05-10 12:30:00,71.8,66.0,29.86,SSW,213,2.0,10.0,82,0.00,OVC,,0.48,0.0,WeatherDisplay:10.37,2013-05-10 17:30:00,
2013-05-10 12:40:00,71.9,65.0,29.86,WSW,237,3.0,7.0,79,0.00,OVC,,0.48,0.0,WeatherDisplay:10.37,2013-05-10 17:40:00,
2013-05-10 12:50:00,70.3,64.9,29.86,SW,228,5.0,7.0,83,0.00,BKN,,0.48,0.0,WeatherDisplay:10.37,2013-05-10 17:50:00,
2013-05-10 13:00:00,71.3,65.9,29.86,SSW,213,3.0,7.0,83,0.00,BKN,,0.48,0.0,WeatherDisplay:10.37,2013-05-10 18:00:00,
2013-05-10 13:10:00,72.7,65.4,29.86,SW,230,3.0,9.0,78,0.00,SCT,,0.48,0.0,WeatherDisplay:10.37,2013-05-10 18:10:00,
2013-05-10 13:20:00,73.5,65.1,29.85,SW,236,3.0,10.0,75,0.00,SCT,,0.48,0.0,WeatherDisplay:10.37,2013-05-10 18:20:00,
2013-05-10 13:30:00,74.0,65.9,29.85,SW,221,3.0,14.0,76,0.00,SCT,,0.48,0.0,WeatherDisplay:10.37,2013-05-10 18:30:00,
2013-05-10 13:40:00,75.1,65.0,29.85,SW,229,3.0,10.0,71,0.00,SCT,,0.48,0.0,WeatherDisplay:10.37,2013-05-10 18:40:00,
2013-05-10 13:50:00,76.0,65.1,29.85,SW,233,3.0,8.0,69,0.00,BKN,,0.48,0.0,WeatherDisplay:10.37,2013-05-10 18:50:00,
2013-05-10 14:00:00,75.5,65.0,29.85,WSW,242,3.0,12.0,70,0.00,BKN,,0.48,0.0,WeatherDisplay:10.37,2013-05-10 19:00:00,
2013-05-10 14:10:00,75.1,64.6,29.84,SW,235,3.0,12.0,70,0.00,BKN,,0.48,0.0,WeatherDisplay:10.37,2013-05-10 19:10:00,
2013-05-10 14:20:00,75.8,64.9,29.84,WSW,247,3.0,12.0,69,0.00,BKN,,0.48,0.0,WeatherDisplay:10.37,2013-05-10 19:20:00,
2013-05-10 14:30:00,76.2,64.0,29.84,West,272,5.0,8.0,66,0.00,BKN,,0.48,0.0,WeatherDisplay:10.37,2013-05-10 19:30:00,
2013-05-10 14:40:00,77.2,65.0,29.84,WSW,248,3.0,8.0,66,0.00,BKN,,0.48,0.0,WeatherDisplay:10.37,2013-05-10 19:40:00,
2013-05-10 14:50:00,76.3,64.6,29.84,WSW,244,2.0,8.0,67,0.00,SCT,,0.48,0.0,WeatherDisplay:10.37,2013-05-10 19:50:00,
2013-05-10 15:00:00,76.8,64.1,29.84,WSW,245,3.0,9.0,65,0.00,SCT,,0.48,0.0,WeatherDisplay:10.37,2013-05-10 20:00:00,
2013-05-10 15:10:00,77.0,65.7,29.83,SW,235,3.0,7.0,68,0.00,CLR,,0.48,0.0,WeatherDisplay:10.37,2013-05-10 20:10:00,
2013-05-10 15:20:00,77.3,65.5,29.83,SW,225,3.0,10.0,67,0.00,CLR,,0.48,0.0,WeatherDisplay:10.37,2013-05-10 20:20:00,
2013-05-10 15:30:00,77.9,65.2,29.82,SW,231,3.0,12.0,65,0.00,CLR,,0.48,0.0,WeatherDisplay:10.37,2013-05-10 20:30:00,
2013-05-10 15:40:00,77.8,63.3,29.82,WSW,243,3.0,12.0,61,0.00,CLR,,0.48,0.0,WeatherDisplay:10.37,2013-05-10 20:40:00,
2013-05-10 15:50:00,78.6,64.0,29.82,West,259,5.0,8.0,61,0.00,CLR,,0.48,0.0,WeatherDisplay:10.37,2013-05-10 20:50:00,
2013-05-10 16:00:00,78.8,63.3,29.82,WSW,257,2.0,10.0,59,0.00,CLR,,0.48,0.0,WeatherDisplay:10.37,2013-05-10 21:00:00,
2013-05-10 16:10:00,77.5,63.5,29.82,WSW,240,3.0,8.0,62,0.00,FEW,,0.48,0.0,WeatherDisplay:10.37,2013-05-10 21:10:00,
2013-05-10 16:20:00,78.3,64.2,29.82,WSW,237,6.0,10.0,62,0.00,FEW,,0.48,0.0,WeatherDisplay:10.37,2013-05-10 21:20:00,
2013-05-10 16:30:00,78.3,62.8,29.82,WSW,247,7.0,10.0,59,0.00,FEW,,0.48,0.0,WeatherDisplay:10.37,2013-05-10 21:30:00,
2013-05-10 16:40:00,77.9,63.4,29.83,WSW,246,3.0,10.0,61,0.00,FEW,,0.48,0.0,WeatherDisplay:10.37,2013-05-10 21:40:00,
2013-05-10 16:50:00,76.6,62.6,29.83,WSW,237,5.0,12.0,62,0.00,FEW,,0.48,0.0,WeatherDisplay:10.37,2013-05-10 21:50:00,
2013-05-10 17:00:00,77.5,63.0,29.83,WSW,239,3.0,12.0,61,0.00,FEW,,0.48,0.0,WeatherDisplay:10.37,2013-05-10 22:00:00,
2013-05-10 17:10:00,77.7,62.2,29.83,WSW,242,5.0,10.0,59,0.00,FEW,,0.48,0.0,WeatherDisplay:10.37,2013-05-10 22:10:00,
2013-05-10 17:20:00,76.5,61.5,29.82,WSW,241,3.0,9.0,60,0.00,FEW,,0.48,0.0,WeatherDisplay:10.37,2013-05-10 22:20:00,
2013-05-10 17:30:00,75.7,61.8,29.82,WSW,247,3.0,7.0,62,0.00,CLR,,0.48,0.0,WeatherDisplay:10.37,2013-05-10 22:30:00,
2013-05-10 17:40:00,75.0,62.0,29.82,WSW,243,1.0,7.0,64,0.00,CLR,,0.48,0.0,WeatherDisplay:10.37,2013-05-10 22:40:00,
2013-05-10 17:50:00,74.4,61.9,29.82,WSW,244,5.0,8.0,65,0.00,CLR,,0.48,0.0,WeatherDisplay:10.37,2013-05-10 22:50:00,
2013-05-10 18:00:00,74.3,62.6,29.82,WSW,252,2.0,5.0,67,0.00,CLR,,0.48,0.0,WeatherDisplay:10.37,2013-05-10 23:00:00,
2013-05-10 18:10:00,74.2,62.5,29.83,West,273,3.0,6.0,67,0.00,FEW,,0.48,0.0,WeatherDisplay:10.37,2013-05-10 23:10:00,
2013-05-10 18:20:00,71.1,57.9,29.84,NW,317,8.0,22.0,63,0.00,FEW,,0.48,0.0,WeatherDisplay:10.37,2013-05-10 23:20:00,
2013-05-10 18:30:00,69.6,57.8,29.83,NW,316,7.0,14.0,66,0.00,BKN,,0.48,0.0,WeatherDisplay:10.37,2013-05-10 23:30:00,
2013-05-10 18:40:00,68.3,59.0,29.83,NW,322,5.0,12.0,72,0.00,BKN,,0.48,0.0,WeatherDisplay:10.37,2013-05-10 23:40:00,
2013-05-10 18:50:00,67.5,59.3,29.82,NW,318,3.0,6.0,75,0.00,BKN,,0.48,0.0,WeatherDisplay:10.37,2013-05-10 23:50:00,
2013-05-10 19:00:00,67.3,59.1,29.82,WNW,300,1.0,4.0,75,0.00,BKN,,0.48,0.0,WeatherDisplay:10.37,2013-05-11 00:00:00,
2013-05-10 19:10:00,66.6,59.6,29.83,SW,233,1.0,2.0,78,0.00,BKN,,0.48,0.0,WeatherDisplay:10.37,2013-05-11 00:10:00,
2013-05-10 19:20:00,66.0,59.7,29.83,SW,217,0.0,2.0,80,0.00,BKN,,0.48,0.0,WeatherDisplay:10.37,2013-05-11 00:20:00,
2013-05-10 19:30:00,65.8,59.8,29.83,SW,217,0.0,1.0,81,0.00,BKN,,0.48,0.0,WeatherDisplay:10.37,2013-05-11 00:30:00,
2013-05-10 19:40:00,65.7,59.7,29.83,SW,217,0.0,0.0,81,0.00,BKN,,0.48,0.0,WeatherDisplay:10.37,2013-05-11 00:40:00,
2013-05-10 19:50:00,66.0,60.0,29.83,SW,217,0.0,1.0,81,0.00,FEW,,0.48,0.0,WeatherDisplay:10.37,2013-05-11 00:50:00,
2013-05-10 20:00:00,65.7,60.1,29.83,SW,217,0.0,1.0,82,0.00,FEW,,0.48,0.0,WeatherDisplay:10.37,2013-05-11 01:00:00,
2013-05-10 20:10:00,65.7,59.7,29.84,SW,217,0.0,1.0,81,0.00,CLR,,0.48,0.0,WeatherDisplay:10.37,2013-05-11 01:10:00,
2013-05-10 20:20:00,65.8,59.8,29.83,SW,217,0.0,0.0,81,0.00,CLR,,0.48,0.0,WeatherDisplay:10.37,2013-05-11 01:20:00,
2013-05-10 20:30:00,66.0,60.0,29.83,SW,217,0.0,0.0,81,0.00,CLR,,0.48,0.0,WeatherDisplay:10.37,2013-05-11 01:30:00,
2013-05-10 20:40:00,65.8,60.2,29.84,SSW,213,0.0,1.0,82,0.00,CLR,,0.48,0.0,WeatherDisplay:10.37,2013-05-11 01:40:00,
2013-05-10 20:50:00,65.4,59.8,29.84,SSE,148,0.0,0.0,82,0.00,CLR,,0.48,0.0,WeatherDisplay:10.37,2013-05-11 01:50:00,
2013-05-10 21:00:00,65.3,60.0,29.85,ENE,62,2.0,4.0,83,0.00,CLR,,0.48,0.0,WeatherDisplay:10.37,2013-05-11 02:00:00,
2013-05-10 21:10:00,66.2,60.9,29.86,North,357,5.0,8.0,83,0.00,CLR,,0.48,0.0,WeatherDisplay:10.37,2013-05-11 02:10:00,
2013-05-10 21:20:00,66.7,61.4,29.87,NNW,329,2.0,7.0,83,0.00,CLR,,0.48,0.0,WeatherDisplay:10.37,2013-05-11 02:20:00,
2013-05-10 21:30:00,66.7,61.4,29.87,NNW,333,3.0,10.0,83,0.00,CLR,,0.48,0.0,WeatherDisplay:10.37,2013-05-11 02:30:00,
2013-05-10 21:40:00,66.6,61.3,29.87,North,3,5.0,9.0,83,0.00,CLR,,0.48,0.0,WeatherDisplay:10.37,2013-05-11 02:40:00,
2013-05-10 21:50:00,66.5,61.5,29.88,North,350,3.0,10.0,84,0.00,FEW,,0.48,0.0,WeatherDisplay:10.37,2013-05-11 02:50:00,
2013-05-10 22:00:00,66.4,61.8,29.89,NNW,344,2.0,7.0,85,0.00,FEW,,0.48,0.0,WeatherDisplay:10.37,2013-05-11 03:00:00,
2013-05-10 22:10:00,66.2,61.9,29.90,North,10,1.0,7.0,86,0.00,FEW,,0.48,0.0,WeatherDisplay:10.37,2013-05-11 03:10:00,
2013-05-10 22:20:00,66.1,62.1,29.89,NNW,344,3.0,5.0,87,0.00,FEW,,0.48,0.0,WeatherDisplay:10.37,2013-05-11 03:20:00,
2013-05-10 22:30:00,65.8,62.1,29.90,North,9,2.0,5.0,88,0.00,BKN,,0.48,0.0,WeatherDisplay:10.37,2013-05-11 03:30:00,
2013-05-10 22:40:00,65.5,62.2,29.90,North,351,2.0,4.0,89,0.00,BKN,,0.48,0.0,WeatherDisplay:10.37,2013-05-11 03:40:00,
2013-05-10 22:50:00,65.6,62.3,29.91,NNW,328,3.0,7.0,89,0.00,BKN,,0.48,0.0,WeatherDisplay:10.37,2013-05-11 03:50:00,
2013-05-10 23:00:00,65.8,62.1,29.92,NNW,339,3.0,6.0,88,0.00,BKN,,0.48,0.0,WeatherDisplay:10.37,2013-05-11 04:00:00,
2013-05-10 23:10:00,65.8,62.1,29.92,North,352,5.0,8.0,88,0.00,OVC,,0.48,0.0,WeatherDisplay:10.37,2013-05-11 04:10:00,
2013-05-10 23:20:00,65.9,61.6,29.92,North,356,3.0,10.0,86,0.00,OVC,,0.48,0.0,WeatherDisplay:10.37,2013-05-11 04:20:00,
2013-05-10 23:30:00,65.8,61.2,29.92,North,359,3.0,12.0,85,0.00,OVC,,0.48,0.0,WeatherDisplay:10.37,2013-05-11 04:30:00,
2013-05-10 23:40:00,65.6,61.0,29.92,NNE,13,5.0,10.0,85,0.00,OVC,,0.48,0.0,WeatherDisplay:10.37,2013-05-11 04:40:00,
2013-05-10 23:50:00,65.2,60.2,29.93,NNE,15,6.0,12.0,84,0.00,OVC,,0.48,0.0,WeatherDisplay:10.37,2013-05-11 04:50:00,